Kezdőlap
METAR-TAF:

METAR-TAF

Repülőterek :

Rochelle Municipal Airport (Koritz Field)

Rochelle, Illinois, Amerikai Egyesült Államok

földrajzi szélesség: 41-53-35N, földrajzi hosszúság: 089-04-42W, magasság: 238 m

Jelenlegi meteorológiai megfigyelések

A jelentés 21 perccel ezelõtt készült, 13:15 UTC
Keleti szél 18 kt széllökések: 25 kt
Hőmérséklet 14°C
Páratartalom 41%
Légköri nyomás 1015 hPa
Látótávolság: 16.1 km
Szakadozott felhőzet 4400 lábon

METAR: KRPJ 161315Z AUTO 10018G25KT 10SM BKN044 14/01 A2996 RMK AO2 T01420006 TSNO

Idő: 08:36 (13:36 UTC)


TAF: hiányzik

Meteorológiai megfigyelések és előrejelzések több, mint 4000 repülőtéren (METAR és TAF jelentéseket).

A térképen piros és sárga pontok jelzik az elérhető meteorológiai állomásokat.

Mozgassa az egeret a pont fölött, hogy megjelenjen az állomás neve.

Azután kattintson az időjárási megfigyelések és előrejelzések megtekintéséhez.

A térkép megváltoztatása: kattintson a fekete keresztel jelölt zöld gombra ráközelítéshez, a vonallal jelölt zöld gombra távolításhoz, vagy a zöld nyilakra a szomszédos térképek eléréséhez.


METAR-TAF: